date,time,SUV Intensity [MED/Hr],UV Index,Daily total [MED],Since Last [MED]
17/09/2022,00:00:43,0.000,0.0,0.0,0.0
17/09/2022,00:01:43,0.000,0.0,0.0,0.0
17/09/2022,00:02:43,0.000,0.0,0.0,0.0
17/09/2022,00:03:52,0.000,0.0,0.0,0.0
17/09/2022,00:04:43,-0.001,0.0,0.0,0.0
17/09/2022,00:05:43,0.000,0.0,0.0,0.0
17/09/2022,00:06:51,0.000,0.0,0.0,0.0
17/09/2022,00:07:43,-0.001,0.0,0.0,0.0
17/09/2022,00:08:44,-0.001,0.0,0.0,0.0
17/09/2022,00:09:43,0.000,0.0,0.0,0.0
17/09/2022,00:10:43,0.001,0.0,0.0,0.0
17/09/2022,00:11:44,0.000,0.0,0.0,0.0
17/09/2022,00:12:43,0.000,0.0,0.0,0.0
17/09/2022,00:13:43,0.000,0.0,0.0,0.0
17/09/2022,00:14:44,-0.000,0.0,0.0,0.0
17/09/2022,00:15:43,0.000,0.0,0.0,0.0
17/09/2022,00:16:43,0.000,0.0,0.0,0.0
17/09/2022,00:17:44,0.000,0.0,0.0,0.0
17/09/2022,00:18:44,0.000,0.0,0.0,0.0
17/09/2022,00:19:43,0.001,0.0,0.0,0.0
17/09/2022,00:20:43,0.000,0.0,0.0,0.0
17/09/2022,00:21:44,0.000,0.0,0.0,0.0
17/09/2022,00:23:00,0.000,0.0,0.0,0.0
17/09/2022,00:24:43,0.000,0.0,0.0,0.0
17/09/2022,00:25:44,0.000,0.0,0.0,0.0
17/09/2022,00:26:43,0.000,0.0,0.0,0.0
17/09/2022,00:27:43,0.001,0.0,0.0,0.0
17/09/2022,00:28:51,0.000,0.0,0.0,0.0
17/09/2022,00:29:43,-0.000,0.0,0.0,0.0
17/09/2022,00:30:44,0.000,0.0,0.0,0.0
17/09/2022,00:31:43,0.000,0.0,0.0,0.0
17/09/2022,00:32:43,0.000,0.0,0.0,0.0
17/09/2022,00:33:43,0.000,0.0,0.0,0.0
17/09/2022,00:34:44,-0.001,0.0,0.0,0.0
17/09/2022,00:35:43,0.000,0.0,0.0,0.0
17/09/2022,00:36:44,0.001,0.0,0.0,0.0
17/09/2022,00:37:44,0.000,0.0,0.0,0.0
17/09/2022,00:38:43,0.001,0.0,0.0,0.0
17/09/2022,00:39:43,0.000,0.0,0.0,0.0
17/09/2022,00:40:43,0.000,0.0,0.0,0.0
17/09/2022,00:44:21,0.000,0.0,0.0,0.0
17/09/2022,00:45:52,0.000,0.0,0.0,0.0
17/09/2022,00:46:43,0.000,0.0,0.0,0.0
17/09/2022,00:47:43,0.000,0.0,0.0,0.0
17/09/2022,00:48:43,0.000,0.0,0.0,0.0
17/09/2022,00:49:44,0.000,0.0,0.0,0.0
17/09/2022,00:50:43,-0.000,0.0,0.0,0.0
17/09/2022,00:51:43,-0.000,0.0,0.0,0.0
17/09/2022,00:52:43,0.000,0.0,0.0,0.0
17/09/2022,00:53:43,0.000,0.0,0.0,0.0
17/09/2022,00:54:52,0.000,0.0,0.0,0.0
17/09/2022,00:55:44,0.000,0.0,0.0,0.0
17/09/2022,00:56:44,0.000,0.0,0.0,0.0
17/09/2022,00:57:45,0.001,0.0,0.0,0.0
17/09/2022,00:58:43,0.000,0.0,0.0,0.0
17/09/2022,00:59:43,0.000,0.0,0.0,0.0
17/09/2022,01:00:44,-0.000,0.0,0.0,0.0
17/09/2022,01:01:43,0.000,0.0,0.0,0.0
17/09/2022,01:02:44,0.000,0.0,0.0,0.0
17/09/2022,01:03:43,-0.001,0.0,0.0,0.0
17/09/2022,01:04:52,0.000,0.0,0.0,0.0
17/09/2022,01:05:43,0.000,0.0,0.0,0.0
17/09/2022,01:06:44,0.000,0.0,0.0,0.0
17/09/2022,01:07:43,0.000,0.0,0.0,0.0
17/09/2022,01:08:43,0.000,0.0,0.0,0.0
17/09/2022,01:09:44,0.000,0.0,0.0,0.0
17/09/2022,01:10:43,0.000,0.0,0.0,0.0
17/09/2022,01:11:44,0.000,0.0,0.0,0.0
17/09/2022,01:12:43,0.000,0.0,0.0,0.0
17/09/2022,01:13:43,0.000,0.0,0.0,0.0
17/09/2022,01:14:44,0.000,0.0,0.0,0.0
17/09/2022,01:15:44,0.000,0.0,0.0,0.0
17/09/2022,01:16:44,0.000,0.0,0.0,0.0
17/09/2022,01:17:52,0.000,0.0,0.0,0.0
17/09/2022,01:18:43,0.000,0.0,0.0,0.0
17/09/2022,01:19:43,0.000,0.0,0.0,0.0
17/09/2022,01:20:52,0.001,0.0,0.0,0.0
17/09/2022,01:21:45,0.000,0.0,0.0,0.0
17/09/2022,01:22:44,0.000,0.0,0.0,0.0
17/09/2022,01:23:43,0.000,0.0,0.0,0.0
17/09/2022,01:24:44,0.000,0.0,0.0,0.0
17/09/2022,01:25:43,0.000,0.0,0.0,0.0
17/09/2022,01:26:43,0.000,0.0,0.0,0.0
17/09/2022,01:27:52,-0.001,0.0,0.0,0.0
17/09/2022,01:28:43,0.000,0.0,0.0,0.0
17/09/2022,01:29:44,0.000,0.0,0.0,0.0
17/09/2022,01:30:52,0.000,0.0,0.0,0.0
17/09/2022,01:31:44,0.000,0.0,0.0,0.0
17/09/2022,01:32:44,0.000,0.0,0.0,0.0
17/09/2022,01:33:43,0.001,0.0,0.0,0.0
17/09/2022,01:34:44,0.001,0.0,0.0,0.0
17/09/2022,01:35:44,-0.001,0.0,0.0,0.0
17/09/2022,01:36:44,0.000,0.0,0.0,0.0
17/09/2022,01:37:51,0.000,0.0,0.0,0.0
17/09/2022,01:38:44,0.000,0.0,0.0,0.0
17/09/2022,01:39:44,-0.001,0.0,0.0,0.0
17/09/2022,01:40:43,0.000,0.0,0.0,0.0
17/09/2022,01:41:43,0.001,0.0,0.0,0.0
17/09/2022,01:42:44,0.000,0.0,0.0,0.0
17/09/2022,01:43:51,0.000,0.0,0.0,0.0
17/09/2022,01:44:44,0.001,0.0,0.0,0.0
17/09/2022,01:45:44,0.000,0.0,0.0,0.0
17/09/2022,01:46:43,0.001,0.0,0.0,0.0
17/09/2022,01:47:43,0.000,0.0,0.0,0.0
17/09/2022,01:48:43,0.001,0.0,0.0,0.0
17/09/2022,01:49:44,0.000,0.0,0.0,0.0
17/09/2022,01:50:43,0.000,0.0,0.0,0.0
17/09/2022,01:51:43,0.001,0.0,0.0,0.0
17/09/2022,01:52:43,0.000,0.0,0.0,0.0
17/09/2022,01:53:51,-0.000,0.0,0.0,0.0
17/09/2022,01:54:44,0.000,0.0,0.0,0.0
17/09/2022,01:55:43,0.000,0.0,0.0,0.0
17/09/2022,01:56:44,0.000,0.0,0.0,0.0
17/09/2022,01:57:43,0.001,0.0,0.0,0.0
17/09/2022,01:59:00,0.000,0.0,0.0,0.0
17/09/2022,02:00:53,0.000,0.0,0.0,0.0
17/09/2022,02:01:44,0.000,0.0,0.0,0.0
17/09/2022,02:02:44,0.000,0.0,0.0,0.0
17/09/2022,02:03:51,-0.001,0.0,0.0,0.0
17/09/2022,02:04:44,0.001,0.0,0.0,0.0
17/09/2022,02:05:43,-0.000,0.0,0.0,0.0
17/09/2022,02:06:44,0.000,0.0,0.0,0.0
17/09/2022,02:07:43,0.000,0.0,0.0,0.0
17/09/2022,02:08:43,-0.001,0.0,0.0,0.0
17/09/2022,02:09:44,0.000,0.0,0.0,0.0
17/09/2022,02:10:44,0.000,0.0,0.0,0.0
17/09/2022,02:11:43,0.000,0.0,0.0,0.0
17/09/2022,02:12:44,0.000,0.0,0.0,0.0
17/09/2022,02:13:51,0.000,0.0,0.0,0.0
17/09/2022,02:14:43,0.000,0.0,0.0,0.0
17/09/2022,02:15:44,0.000,0.0,0.0,0.0
17/09/2022,02:16:52,-0.000,0.0,0.0,0.0
17/09/2022,02:17:44,0.000,0.0,0.0,0.0
17/09/2022,02:18:44,0.000,0.0,0.0,0.0
17/09/2022,02:19:51,0.000,0.0,0.0,0.0
17/09/2022,02:20:44,0.000,0.0,0.0,0.0
17/09/2022,02:21:44,0.000,0.0,0.0,0.0
17/09/2022,02:22:44,0.001,0.0,0.0,0.0
17/09/2022,02:23:43,0.001,0.0,0.0,0.0
17/09/2022,02:24:35,0.000,0.0,0.0,0.0
17/09/2022,02:25:45,0.000,0.0,0.0,0.0
17/09/2022,02:26:51,0.000,0.0,0.0,0.0
17/09/2022,02:27:44,0.001,0.0,0.0,0.0
17/09/2022,02:28:44,0.000,0.0,0.0,0.0
17/09/2022,02:29:35,0.001,0.0,0.0,0.0
17/09/2022,02:30:44,0.001,0.0,0.0,0.0
17/09/2022,02:31:44,0.000,0.0,0.0,0.0
17/09/2022,02:32:44,0.000,0.0,0.0,0.0
17/09/2022,02:33:44,0.001,0.0,0.0,0.0
17/09/2022,02:34:44,0.000,0.0,0.0,0.0
17/09/2022,02:35:43,0.000,0.0,0.0,0.0
17/09/2022,02:36:52,0.001,0.0,0.0,0.0
17/09/2022,02:37:43,0.000,0.0,0.0,0.0
17/09/2022,02:38:44,0.000,0.0,0.0,0.0
17/09/2022,02:39:52,0.000,0.0,0.0,0.0
17/09/2022,02:40:44,0.000,0.0,0.0,0.0
17/09/2022,02:41:43,0.000,0.0,0.0,0.0
17/09/2022,02:42:44,0.000,0.0,0.0,0.0
17/09/2022,02:43:43,0.001,0.0,0.0,0.0
17/09/2022,02:44:44,0.001,0.0,0.0,0.0
17/09/2022,02:45:43,0.000,0.0,0.0,0.0
17/09/2022,02:46:43,0.000,0.0,0.0,0.0
17/09/2022,02:47:44,0.001,0.0,0.0,0.0
17/09/2022,02:48:43,0.000,0.0,0.0,0.0
17/09/2022,02:49:52,0.000,0.0,0.0,0.0
17/09/2022,02:50:44,0.001,0.0,0.0,0.0
17/09/2022,02:51:44,0.000,0.0,0.0,0.0
17/09/2022,02:52:51,0.000,0.0,0.0,0.0
17/09/2022,02:53:44,0.000,0.0,0.0,0.0
17/09/2022,02:54:44,0.000,0.0,0.0,0.0
17/09/2022,02:55:43,0.000,0.0,0.0,0.0
17/09/2022,02:56:44,0.001,0.0,0.0,0.0
17/09/2022,02:57:45,0.000,0.0,0.0,0.0
17/09/2022,02:58:44,0.000,0.0,0.0,0.0
17/09/2022,02:59:52,0.000,0.0,0.0,0.0
17/09/2022,03:00:44,-0.000,0.0,0.0,0.0
17/09/2022,03:01:44,0.000,0.0,0.0,0.0
17/09/2022,03:02:44,0.001,0.0,0.0,0.0
17/09/2022,03:03:44,0.000,0.0,0.0,0.0
17/09/2022,03:04:44,0.001,0.0,0.0,0.0
17/09/2022,03:05:44,0.001,0.0,0.0,0.0
17/09/2022,03:06:44,0.001,0.0,0.0,0.0
17/09/2022,03:07:44,0.001,0.0,0.0,0.0
17/09/2022,03:08:44,0.001,0.0,0.0,0.0
17/09/2022,03:09:52,0.001,0.0,0.0,0.0
17/09/2022,03:10:43,0.001,0.0,0.0,0.0
17/09/2022,03:11:43,0.001,0.0,0.0,0.0
17/09/2022,03:12:44,0.001,0.0,0.0,0.0
17/09/2022,03:13:43,0.001,0.0,0.0,0.0
17/09/2022,03:14:43,0.001,0.0,0.0,0.0
17/09/2022,03:15:44,0.001,0.0,0.0,0.0
17/09/2022,03:16:44,0.001,0.0,0.0,0.0
17/09/2022,03:17:44,0.001,0.0,0.0,0.0
17/09/2022,03:18:43,0.001,0.0,0.0,0.0
17/09/2022,03:19:52,0.001,0.0,0.0,0.0
17/09/2022,03:20:43,0.001,0.0,0.0,0.0
17/09/2022,03:21:44,0.001,0.0,0.0,0.0
17/09/2022,03:22:44,0.001,0.0,0.0,0.0
17/09/2022,03:23:44,0.001,0.0,0.0,0.0
17/09/2022,03:24:44,0.001,0.0,0.0,0.0
17/09/2022,03:25:43,0.001,0.0,0.0,0.0
17/09/2022,03:26:43,0.001,0.0,0.0,0.0
17/09/2022,03:27:44,0.001,0.0,0.0,0.0
17/09/2022,03:28:43,0.001,0.0,0.0,0.0
17/09/2022,03:29:43,0.001,0.0,0.0,0.0
17/09/2022,03:30:44,0.001,0.0,0.0,0.0
17/09/2022,03:31:43,0.001,0.0,0.0,0.0
17/09/2022,03:32:43,0.001,0.0,0.0,0.0
17/09/2022,03:33:44,0.001,0.0,0.0,0.0
17/09/2022,03:34:43,0.001,0.0,0.0,0.0
17/09/2022,03:35:44,0.001,0.0,0.0,0.0
17/09/2022,03:36:44,0.001,0.0,0.0,0.0
17/09/2022,03:37:44,0.001,0.0,0.0,0.0
17/09/2022,03:38:44,0.001,0.0,0.0,0.0
17/09/2022,03:49:42,0.001,0.0,0.0,0.0
17/09/2022,03:50:43,0.001,0.0,0.0,0.0
17/09/2022,03:51:44,0.001,0.0,0.0,0.0
17/09/2022,03:52:44,0.001,0.0,0.0,0.0
17/09/2022,03:53:52,0.001,0.0,0.0,0.0
17/09/2022,03:54:43,0.001,0.0,0.0,0.0
17/09/2022,03:55:44,0.001,0.0,0.0,0.0
17/09/2022,03:56:52,0.001,0.0,0.0,0.0
17/09/2022,03:57:44,0.001,0.0,0.0,0.0
17/09/2022,03:58:44,0.001,0.0,0.0,0.0
17/09/2022,03:59:44,0.001,0.0,0.0,0.0
17/09/2022,04:00:44,0.001,0.0,0.0,0.0
17/09/2022,04:01:44,0.001,0.0,0.0,0.0
17/09/2022,04:02:43,0.001,0.0,0.0,0.0
17/09/2022,04:03:44,0.001,0.0,0.0,0.0
17/09/2022,04:04:44,0.001,0.0,0.0,0.0
17/09/2022,04:05:43,0.001,0.0,0.0,0.0
17/09/2022,04:06:52,0.001,0.0,0.0,0.0
17/09/2022,04:07:43,0.001,0.0,0.0,0.0
17/09/2022,04:08:44,0.001,0.0,0.0,0.0
17/09/2022,04:09:43,0.001,0.0,0.0,0.0
17/09/2022,04:10:44,0.001,0.0,0.0,0.0
17/09/2022,04:11:44,0.001,0.0,0.0,0.0
17/09/2022,04:12:43,0.001,0.0,0.0,0.0
17/09/2022,04:13:44,0.001,0.0,0.0,0.0
17/09/2022,04:14:43,0.001,0.0,0.0,0.0
17/09/2022,04:15:44,0.001,0.0,0.0,0.0
17/09/2022,04:16:52,0.001,0.0,0.0,0.0
17/09/2022,04:17:45,0.001,0.0,0.0,0.0
17/09/2022,04:18:43,0.000,0.0,0.0,0.0
17/09/2022,04:19:44,0.000,0.0,0.0,0.0
17/09/2022,04:20:43,0.000,0.0,0.0,0.0
17/09/2022,04:21:44,0.001,0.0,0.0,0.0
17/09/2022,04:22:43,0.000,0.0,0.0,0.0
17/09/2022,04:23:44,0.000,0.0,0.0,0.0
17/09/2022,04:24:44,0.001,0.0,0.0,0.0
17/09/2022,04:25:43,0.000,0.0,0.0,0.0
17/09/2022,04:26:52,0.001,0.0,0.0,0.0
17/09/2022,04:27:44,0.000,0.0,0.0,0.0
17/09/2022,04:28:44,0.000,0.0,0.0,0.0
17/09/2022,04:29:44,0.000,0.0,0.0,0.0
17/09/2022,04:30:44,0.000,0.0,0.0,0.0
17/09/2022,04:31:44,0.001,0.0,0.0,0.0
17/09/2022,04:32:44,0.000,0.0,0.0,0.0
17/09/2022,04:33:44,0.001,0.0,0.0,0.0
17/09/2022,04:34:44,0.000,0.0,0.0,0.0
17/09/2022,04:35:44,0.001,0.0,0.0,0.0
17/09/2022,04:36:44,0.000,0.0,0.0,0.0
17/09/2022,04:37:44,0.000,0.0,0.0,0.0
17/09/2022,04:38:44,0.001,0.0,0.0,0.0
17/09/2022,04:39:44,0.000,0.0,0.0,0.0
17/09/2022,04:40:43,0.000,0.0,0.0,0.0
17/09/2022,04:41:44,0.000,0.0,0.0,0.0
17/09/2022,04:42:44,0.000,0.0,0.0,0.0
17/09/2022,04:43:44,0.000,0.0,0.0,0.0
17/09/2022,04:44:45,0.000,0.0,0.0,0.0
17/09/2022,04:45:44,0.000,0.0,0.0,0.0
17/09/2022,04:46:44,0.000,0.0,0.0,0.0
17/09/2022,04:47:44,0.000,0.0,0.0,0.0
17/09/2022,04:48:44,0.000,0.0,0.0,0.0
17/09/2022,04:49:44,0.001,0.0,0.0,0.0
17/09/2022,04:50:43,-0.000,0.0,0.0,0.0
17/09/2022,04:51:43,0.000,0.0,0.0,0.0
17/09/2022,04:52:44,0.000,0.0,0.0,0.0
17/09/2022,04:53:44,0.000,0.0,0.0,0.0
17/09/2022,04:54:44,0.000,0.0,0.0,0.0
17/09/2022,04:55:44,0.000,0.0,0.0,0.0
17/09/2022,04:56:43,0.000,0.0,0.0,0.0
17/09/2022,04:57:43,0.000,0.0,0.0,0.0
17/09/2022,04:58:44,0.000,0.0,0.0,0.0
17/09/2022,04:59:44,0.000,0.0,0.0,0.0
17/09/2022,05:00:44,0.000,0.0,0.0,0.0
17/09/2022,05:01:44,0.000,0.0,0.0,0.0
17/09/2022,05:02:44,0.000,0.0,0.0,0.0
17/09/2022,05:03:44,0.000,0.0,0.0,0.0
17/09/2022,05:04:43,0.000,0.0,0.0,0.0
17/09/2022,05:05:44,0.000,0.0,0.0,0.0
17/09/2022,05:06:35,0.000,0.0,0.0,0.0
17/09/2022,05:07:44,0.000,0.0,0.0,0.0
17/09/2022,05:08:43,0.001,0.0,0.0,0.0
17/09/2022,05:09:43,0.000,0.0,0.0,0.0
17/09/2022,05:10:44,0.000,0.0,0.0,0.0
17/09/2022,05:11:44,0.000,0.0,0.0,0.0
17/09/2022,05:12:44,0.000,0.0,0.0,0.0
17/09/2022,05:13:44,0.000,0.0,0.0,0.0
17/09/2022,05:14:44,0.000,0.0,0.0,0.0
17/09/2022,05:15:44,0.000,0.0,0.0,0.0
17/09/2022,05:16:52,0.001,0.0,0.0,0.0
17/09/2022,05:17:52,0.001,0.0,0.0,0.0
17/09/2022,05:18:44,0.000,0.0,0.0,0.0
17/09/2022,05:19:44,0.001,0.0,0.0,0.0
17/09/2022,05:20:44,0.000,0.0,0.0,0.0
17/09/2022,05:21:44,-0.000,0.0,0.0,0.0
17/09/2022,05:22:44,-0.000,0.0,0.0,0.0
17/09/2022,05:23:44,0.000,0.0,0.0,0.0
17/09/2022,05:24:44,0.001,0.0,0.0,0.0
17/09/2022,05:25:44,0.001,0.0,0.0,0.0
17/09/2022,05:26:44,0.001,0.0,0.0,0.0
17/09/2022,05:27:44,0.001,0.0,0.0,0.0
17/09/2022,05:28:44,0.001,0.0,0.0,0.0
17/09/2022,05:29:44,0.001,0.0,0.0,0.0
17/09/2022,05:30:44,0.001,0.0,0.0,0.0
17/09/2022,05:31:44,0.001,0.0,0.0,0.0
17/09/2022,05:32:44,0.002,0.0,0.0,0.0
17/09/2022,05:33:43,0.001,0.0,0.0,0.0
17/09/2022,05:34:52,0.001,0.0,0.0,0.0
17/09/2022,05:35:44,0.001,0.0,0.0,0.0
17/09/2022,05:36:44,0.001,0.0,0.0,0.0
17/09/2022,05:37:52,0.001,0.0,0.0,0.0
17/09/2022,05:38:44,0.002,0.0,0.0,0.0
17/09/2022,05:39:45,0.002,0.0,0.0,0.0
17/09/2022,05:40:44,0.002,0.0,0.0,0.0
17/09/2022,05:41:44,0.002,0.0,0.0,0.0
17/09/2022,05:42:44,0.002,0.0,0.0,0.0
17/09/2022,05:43:44,0.003,0.0,0.0,0.0
17/09/2022,05:44:44,0.004,0.0,0.0,0.0
17/09/2022,05:45:44,0.003,0.0,0.0,0.0
17/09/2022,05:46:44,0.003,0.0,0.0,0.0
17/09/2022,05:47:53,0.004,0.0,0.0,0.0
17/09/2022,05:48:44,0.003,0.0,0.0,0.0
17/09/2022,05:49:44,0.004,0.0,0.0,0.0
17/09/2022,05:50:44,0.005,0.0,0.0,0.0
17/09/2022,05:51:44,0.005,0.0,0.0,0.0
17/09/2022,05:52:44,0.005,0.0,0.0,0.0
17/09/2022,05:53:44,0.006,0.0,0.0,0.0
17/09/2022,05:54:53,0.006,0.0,0.0,0.0
17/09/2022,05:55:44,0.007,0.0,0.0,0.0
17/09/2022,05:56:44,0.007,0.0,0.0,0.0
17/09/2022,05:57:44,0.007,0.0,0.0,0.0
17/09/2022,05:58:44,0.007,0.0,0.0,0.0
17/09/2022,05:59:44,0.008,0.0,0.001,0.001
17/09/2022,06:00:44,0.007,0.0,0.001,0.0
17/09/2022,06:01:44,0.009,0.0,0.001,0.0
17/09/2022,06:02:44,0.009,0.0,0.001,0.0
17/09/2022,06:03:44,0.010,0.0,0.001,0.0
17/09/2022,06:04:52,0.010,0.0,0.001,0.0
17/09/2022,06:05:44,0.010,0.0,0.001,0.0
17/09/2022,06:06:44,0.011,0.0,0.002,0.001
17/09/2022,06:07:44,0.011,0.0,0.002,0.0
17/09/2022,06:08:44,0.011,0.0,0.002,0.0
17/09/2022,06:09:44,0.013,0.0,0.002,0.0
17/09/2022,06:10:44,0.013,0.0,0.002,0.0
17/09/2022,06:11:52,0.013,0.0,0.003,0.001
17/09/2022,06:12:45,0.013,0.0,0.003,0.0
17/09/2022,06:13:44,0.014,0.0,0.003,0.0
17/09/2022,06:14:52,0.015,0.0,0.003,0.0
17/09/2022,06:15:44,0.016,0.0,0.004,0.001
17/09/2022,06:16:44,0.017,0.0,0.004,0.0
17/09/2022,06:17:44,0.018,0.0,0.004,0.0
17/09/2022,06:18:44,0.019,0.0,0.004,0.0
17/09/2022,06:19:44,0.020,0.0,0.005,0.001
17/09/2022,06:20:44,0.020,0.0,0.005,0.0
17/09/2022,06:21:50,0.022,0.0,0.006,0.001
17/09/2022,06:22:44,0.022,0.0,0.006,0.0
17/09/2022,06:23:44,0.023,0.0,0.006,0.0
17/09/2022,06:24:44,0.023,0.0,0.007,0.001
17/09/2022,06:25:44,0.025,0.0,0.007,0.0
17/09/2022,06:26:44,0.026,0.0,0.007,0.0
17/09/2022,06:27:44,0.027,0.0,0.008,0.001
17/09/2022,06:28:44,0.028,0.0,0.008,0.0
17/09/2022,06:29:44,0.029,0.0,0.009,0.001
17/09/2022,06:30:44,0.030,0.0,0.009,0.0
17/09/2022,06:31:53,0.030,0.0,0.01,0.001
17/09/2022,06:32:44,0.031,0.0,0.01,0.0
17/09/2022,06:33:44,0.033,0.0,0.011,0.001
17/09/2022,06:34:44,0.034,0.0,0.011,0.0
17/09/2022,06:35:44,0.035,0.0,0.012,0.001
17/09/2022,06:36:44,0.036,0.0,0.013,0.001
17/09/2022,06:37:44,0.037,0.0,0.013,0.0
17/09/2022,06:38:44,0.039,0.0,0.014,0.001
17/09/2022,06:39:44,0.040,0.0,0.015,0.001
17/09/2022,06:40:44,0.040,0.0,0.015,0.0
17/09/2022,06:41:44,0.043,0.0,0.016,0.001
17/09/2022,06:42:44,0.044,0.0,0.017,0.001
17/09/2022,06:43:45,0.045,0.0,0.017,0.0
17/09/2022,06:44:46,0.047,0.0,0.018,0.001
17/09/2022,06:45:44,0.048,0.0,0.019,0.001
17/09/2022,06:46:44,0.049,0.0,0.02,0.001
17/09/2022,06:47:44,0.051,0.0,0.021,0.001
17/09/2022,06:48:44,0.052,0.0,0.021,0.0
17/09/2022,06:49:44,0.054,0.0,0.022,0.001
17/09/2022,06:50:44,0.055,0.0,0.023,0.001
17/09/2022,06:51:44,0.058,0.0,0.024,0.001
17/09/2022,06:52:52,0.059,0.0,0.025,0.001
17/09/2022,06:53:44,0.060,0.0,0.026,0.001
17/09/2022,06:54:45,0.063,0.0,0.027,0.001
17/09/2022,06:55:52,0.064,0.0,0.028,0.001
17/09/2022,06:56:44,0.066,0.0,0.029,0.001
17/09/2022,06:57:44,0.067,0.0,0.03,0.001
17/09/2022,06:58:44,0.070,0.0,0.031,0.001
17/09/2022,06:59:44,0.070,0.0,0.033,0.002
17/09/2022,07:00:44,0.073,0.0,0.034,0.001
17/09/2022,07:01:44,0.075,0.0,0.035,0.001
17/09/2022,07:02:52,0.076,0.0,0.036,0.001
17/09/2022,07:03:44,0.078,0.0,0.038,0.002
17/09/2022,07:04:44,0.081,0.0,0.039,0.001
17/09/2022,07:05:44,0.082,0.0,0.04,0.001
17/09/2022,07:06:44,0.085,0.0,0.042,0.002
17/09/2022,07:07:44,0.086,0.0,0.043,0.001
17/09/2022,07:08:45,0.089,0.0,0.045,0.002
17/09/2022,07:09:44,0.091,0.0,0.046,0.001
17/09/2022,07:10:44,0.093,0.0,0.048,0.002
17/09/2022,07:11:44,0.095,0.0,0.049,0.001
17/09/2022,07:12:52,0.098,0.0,0.051,0.002
17/09/2022,07:13:44,0.100,0.0,0.052,0.001
17/09/2022,07:14:44,0.102,0.0,0.054,0.002
17/09/2022,07:15:44,0.104,0.0,0.056,0.002
17/09/2022,07:16:44,0.107,0.0,0.058,0.002
17/09/2022,07:17:44,0.109,0.0,0.059,0.001
17/09/2022,07:18:44,0.112,0.0,0.061,0.002
17/09/2022,07:19:52,0.114,0.0,0.063,0.002
17/09/2022,07:20:44,0.117,0.0,0.065,0.002
17/09/2022,07:21:44,0.119,0.0,0.067,0.002
17/09/2022,07:22:44,0.122,0.0,0.069,0.002
17/09/2022,07:23:44,0.123,0.0,0.071,0.002
17/09/2022,07:24:44,0.128,0.0,0.073,0.002
17/09/2022,07:25:44,0.130,0.0,0.075,0.002
17/09/2022,07:26:45,0.132,0.0,0.077,0.002
17/09/2022,07:27:45,0.134,0.0,0.08,0.003
17/09/2022,07:28:44,0.138,0.0,0.082,0.002
17/09/2022,07:29:44,0.140,0.0,0.084,0.002
17/09/2022,07:30:44,0.144,0.0,0.087,0.003
17/09/2022,07:31:44,0.147,0.0,0.089,0.002
17/09/2022,07:32:44,0.151,0.0,0.092,0.003
17/09/2022,07:33:44,0.153,0.0,0.094,0.002
17/09/2022,07:34:44,0.156,0.0,0.097,0.003
17/09/2022,07:35:44,0.159,0.0,0.099,0.002
17/09/2022,07:36:44,0.162,0.0,0.102,0.003
17/09/2022,07:37:44,0.165,0.0,0.105,0.003
17/09/2022,07:38:44,0.167,0.0,0.107,0.002
17/09/2022,07:39:44,0.173,0.0,0.11,0.003
17/09/2022,07:40:52,0.175,0.0,0.114,0.004
17/09/2022,07:41:46,0.178,0.0,0.116,0.002
17/09/2022,07:42:44,0.181,0.0,0.119,0.003
17/09/2022,07:43:44,0.185,0.0,0.122,0.003
17/09/2022,07:44:44,0.188,0.0,0.125,0.003
17/09/2022,07:45:44,0.192,0.0,0.128,0.003
17/09/2022,07:46:44,0.195,0.0,0.132,0.004
17/09/2022,07:47:44,0.199,0.0,0.135,0.003
17/09/2022,07:48:44,0.204,0.0,0.138,0.003
17/09/2022,07:49:52,0.206,0.0,0.142,0.004
17/09/2022,07:50:44,0.210,0.0,0.145,0.003
17/09/2022,07:51:44,0.214,0.0,0.149,0.004
17/09/2022,07:52:45,0.218,1.0,0.152,0.003
17/09/2022,07:53:52,0.222,1.0,0.156,0.004
17/09/2022,07:54:44,0.226,1.0,0.16,0.004
17/09/2022,07:55:44,0.229,1.0,0.163,0.003
17/09/2022,07:56:44,0.232,1.0,0.167,0.004
17/09/2022,07:57:44,0.237,1.0,0.171,0.004
17/09/2022,07:58:44,0.241,1.0,0.175,0.004
17/09/2022,07:59:45,0.245,1.0,0.179,0.004
17/09/2022,08:00:44,0.249,1.0,0.183,0.004
17/09/2022,08:01:44,0.253,1.0,0.188,0.005
17/09/2022,08:02:45,0.257,1.0,0.192,0.004
17/09/2022,08:03:53,0.262,1.0,0.197,0.005
17/09/2022,08:04:44,0.264,1.0,0.2,0.003
17/09/2022,08:05:44,0.269,1.0,0.205,0.005
17/09/2022,08:06:44,0.273,1.0,0.209,0.004
17/09/2022,08:07:44,0.278,1.0,0.214,0.005
17/09/2022,08:08:45,0.282,1.0,0.219,0.005
17/09/2022,08:09:44,0.286,1.0,0.223,0.004
17/09/2022,08:10:44,0.290,1.0,0.228,0.005
17/09/2022,08:11:44,0.295,1.0,0.233,0.005
17/09/2022,08:12:44,0.300,1.0,0.238,0.005
17/09/2022,08:13:52,0.306,1.0,0.244,0.006
17/09/2022,08:14:45,0.310,1.0,0.248,0.004
17/09/2022,08:15:44,0.313,1.0,0.253,0.005
17/09/2022,08:16:44,0.319,1.0,0.259,0.006
17/09/2022,08:17:44,0.323,1.0,0.264,0.005
17/09/2022,08:18:44,0.328,1.0,0.269,0.005
17/09/2022,08:19:44,0.332,1.0,0.275,0.006
17/09/2022,08:20:53,0.338,1.0,0.281,0.006
17/09/2022,08:21:44,0.341,1.0,0.286,0.005
17/09/2022,08:22:44,0.346,1.0,0.292,0.006
17/09/2022,08:23:45,0.351,1.0,0.298,0.006
17/09/2022,08:24:44,0.356,1.0,0.304,0.006
17/09/2022,08:25:44,0.360,1.0,0.31,0.006
17/09/2022,08:26:44,0.366,1.0,0.316,0.006
17/09/2022,08:27:45,0.371,1.0,0.322,0.006
17/09/2022,08:28:44,0.376,1.0,0.328,0.006
17/09/2022,08:29:44,0.380,1.0,0.334,0.006
17/09/2022,08:30:44,0.385,1.0,0.341,0.007
17/09/2022,08:31:44,0.391,1.0,0.347,0.006
17/09/2022,08:32:44,0.397,1.0,0.354,0.007
17/09/2022,08:33:45,0.401,1.0,0.36,0.006
17/09/2022,08:34:53,0.407,1.0,0.368,0.008
17/09/2022,08:35:45,0.412,1.0,0.374,0.006
17/09/2022,08:36:45,0.417,1.0,0.381,0.007
17/09/2022,08:37:44,0.422,1.0,0.388,0.007
17/09/2022,08:38:45,0.427,1.0,0.395,0.007
17/09/2022,08:39:44,0.432,1.0,0.402,0.007
17/09/2022,08:40:44,0.436,1.0,0.409,0.007
17/09/2022,08:41:45,0.443,1.0,0.417,0.008
17/09/2022,08:42:44,0.448,1.0,0.424,0.007
17/09/2022,08:43:44,0.453,1.0,0.432,0.008
17/09/2022,08:44:44,0.459,1.0,0.439,0.007
17/09/2022,08:45:44,0.464,1.0,0.447,0.008
17/09/2022,08:46:44,0.470,1.0,0.455,0.008
17/09/2022,08:47:44,0.475,1.0,0.463,0.008
17/09/2022,08:48:44,0.480,1.0,0.471,0.008
17/09/2022,08:49:44,0.486,1.0,0.479,0.008
17/09/2022,08:50:45,0.489,1.0,0.487,0.008
17/09/2022,08:51:44,0.496,1.0,0.495,0.008
17/09/2022,08:52:44,0.501,1.0,0.503,0.008
17/09/2022,08:53:45,0.508,1.0,0.512,0.009
17/09/2022,08:54:44,0.512,1.0,0.52,0.008
17/09/2022,08:55:44,0.518,1.0,0.529,0.009
17/09/2022,08:56:44,0.524,1.0,0.537,0.008
17/09/2022,08:57:44,0.530,1.0,0.546,0.009
17/09/2022,08:58:45,0.536,1.0,0.555,0.009
17/09/2022,08:59:44,0.540,1.0,0.564,0.009
17/09/2022,09:00:44,0.546,1.0,0.573,0.009
17/09/2022,09:01:44,0.551,1.0,0.582,0.009
17/09/2022,09:02:44,0.556,1.0,0.591,0.009
17/09/2022,09:03:45,0.568,1.0,0.601,0.01
17/09/2022,09:04:44,0.578,1.0,0.61,0.009
17/09/2022,09:05:45,0.544,1.0,0.62,0.01
17/09/2022,09:06:44,0.486,1.0,0.629,0.009
17/09/2022,09:07:53,0.506,1.0,0.638,0.009
17/09/2022,09:08:44,0.607,1.0,0.646,0.008
17/09/2022,09:09:44,0.525,1.0,0.656,0.01
17/09/2022,09:10:45,0.594,1.0,0.665,0.009
17/09/2022,09:11:44,0.613,1.0,0.675,0.01
17/09/2022,09:12:44,0.615,1.0,0.686,0.011
17/09/2022,09:13:44,0.625,1.0,0.696,0.01
17/09/2022,09:14:35,0.628,1.0,0.705,0.009
17/09/2022,09:15:46,0.635,1.0,0.717,0.012
17/09/2022,09:16:44,0.641,1.0,0.727,0.01
17/09/2022,09:17:53,0.652,1.0,0.74,0.013
17/09/2022,09:18:57,0.652,1.0,0.751,0.011
17/09/2022,09:20:45,0.662,2.0,0.771,0.02
17/09/2022,09:21:44,0.670,2.0,0.782,0.011
17/09/2022,09:22:45,0.677,2.0,0.793,0.011
17/09/2022,09:23:44,0.684,2.0,0.805,0.012
17/09/2022,09:24:44,0.689,2.0,0.816,0.011
17/09/2022,09:25:45,0.696,2.0,0.828,0.012
17/09/2022,09:26:44,0.699,2.0,0.839,0.011
17/09/2022,09:27:54,0.706,2.0,0.853,0.014
17/09/2022,09:28:43,0.714,2.0,0.863,0.01
17/09/2022,09:29:44,0.716,2.0,0.875,0.012
17/09/2022,09:30:44,0.719,2.0,0.887,0.012
17/09/2022,09:31:44,0.727,2.0,0.899,0.012
17/09/2022,09:32:44,0.733,2.0,0.911,0.012
17/09/2022,09:33:45,0.742,2.0,0.923,0.012
17/09/2022,09:34:45,0.748,2.0,0.936,0.013
17/09/2022,09:35:44,0.754,2.0,0.948,0.012
17/09/2022,09:36:44,0.759,2.0,0.961,0.013
17/09/2022,09:37:44,0.765,2.0,0.973,0.012
17/09/2022,09:38:45,0.771,2.0,0.986,0.013
17/09/2022,09:39:46,0.782,2.0,1.0,0.014
17/09/2022,09:40:44,0.790,2.0,1.012,0.012
17/09/2022,09:41:44,0.793,2.0,1.025,0.013
17/09/2022,09:42:44,0.799,2.0,1.039,0.014
17/09/2022,09:43:44,0.805,2.0,1.052,0.013
17/09/2022,09:44:44,0.811,2.0,1.066,0.014
17/09/2022,09:45:52,0.818,2.0,1.081,0.015
17/09/2022,09:46:44,0.822,2.0,1.093,0.012
17/09/2022,09:47:44,0.831,2.0,1.107,0.014
17/09/2022,09:48:44,0.835,2.0,1.12,0.013
17/09/2022,09:49:45,0.842,2.0,1.134,0.014
17/09/2022,09:50:44,0.849,2.0,1.148,0.014
17/09/2022,09:51:44,0.854,2.0,1.163,0.015
17/09/2022,09:52:44,0.861,2.0,1.177,0.014
17/09/2022,09:53:44,0.866,2.0,1.191,0.014
17/09/2022,09:54:45,0.869,2.0,1.206,0.015
17/09/2022,09:55:44,0.875,2.0,1.22,0.014
17/09/2022,09:56:44,0.881,2.0,1.235,0.015
17/09/2022,09:57:44,0.888,2.0,1.25,0.015
17/09/2022,09:58:44,0.892,2.0,1.265,0.015
17/09/2022,09:59:45,0.897,2.0,1.279,0.014
17/09/2022,10:00:44,0.904,2.0,1.294,0.015
17/09/2022,10:01:44,0.908,2.0,1.31,0.016
17/09/2022,10:02:44,0.914,2.0,1.325,0.015
17/09/2022,10:03:44,0.922,2.0,1.34,0.015
17/09/2022,10:04:44,0.927,2.0,1.355,0.015
17/09/2022,10:05:45,0.933,2.0,1.371,0.016
17/09/2022,10:06:45,0.939,2.0,1.387,0.016
17/09/2022,10:07:45,0.945,2.0,1.402,0.015
17/09/2022,10:08:44,0.950,2.0,1.418,0.016
17/09/2022,10:09:45,0.955,2.0,1.434,0.016
17/09/2022,10:10:44,0.961,2.0,1.45,0.016
17/09/2022,10:11:44,0.963,2.0,1.466,0.016
17/09/2022,10:12:45,0.972,2.0,1.482,0.016
17/09/2022,10:13:44,0.975,2.0,1.498,0.016
17/09/2022,10:14:44,0.982,2.0,1.515,0.017
17/09/2022,10:15:44,0.988,2.0,1.531,0.016
17/09/2022,10:16:44,0.990,2.0,1.547,0.016
17/09/2022,10:17:44,0.996,2.0,1.564,0.017
17/09/2022,10:18:44,1.000,2.0,1.581,0.017